Location: Dead Woman Crossing
(43.5369°N, 106.3228°W)
Time: 02:56:15
(UTC+00:00)

COSMOS 2251 DEB - Pass Details

Date: 06 December 2022
Orbit: 765 x 800 km, 74.0° (Epoch: 25 January)

Event Time Altitude Azimuth Distance (km) Brightness Sun altitude
Rises 02:02:28 0° 327° (NNW) 3,250 ? -27.0°
Reaches altitude 10° 02:05:16 10° 313° (NW) 2,315 ? -27.5°
Maximum altitude 02:09:20 23° 262° (W) 1,572 ? -28.3°
Drops below altitude 10° 02:13:24 10° 211° (SSW) 2,296 ? -29.0°
Sets 02:16:10 0° 197° (SSW) 3,217 ? -29.5°
